Cloud_Cover
100 100 100 100 100 1 98 55 83 44 78 100 100 81 32 5 5 5 84 10 5 5 5 5 5 5 0 0 0 0 0 0 0 0 0 0 0 0 0 0 0 4 4 1
100 100 100 100 97 92 72 9 94 79 97 100 100 81 5 5 12 63 23 6 39 10 50 23 5 5 1 0 0 0 0 0 0 0 0 0 0 0 0 0 0 0 1 0
100 100 100 100 100 78 22 96 94 66 100 100 99 97 5 5 85 80 69 61 65 74 45 13 5 0 0 0 0 0 0 0 0 0 3 5 5 5 0 0 0 0 1 0
100 100 100 100 100 20 99 98 55 98 100 100 18 98 13 13 100 74 80 17 59 26 5 7 5 4 0 0 0 0 0 4 5 5 8 49 8 0 0 0 2 4 4 5
100 100 100 100 100 75 100 100 100 100 100 100 25 68 5 96 100 97 65 42 56 38 64 38 5 5 4 5 21 53 41 26 5 5 5 4 4 0 5 5 5 5 5 5
100 100 100 100 100 100 95 100 100 100 100 100 6 7 96 100 64 99 57 45 5 39 81 80 73 12 5 10 5 5 71 92 83 56 5 5 63 5 5 5 5 5 5 5
100 100 100 100 100 100 100 100 100 100 98 100 80 55 100 75 47 100 29 18 40 89 68 72 28 6 5 5 5 64 48 53 52 29 5 38 66 100 5 5 5 5 5 5
100 100 100 100 100 100 100 100 100 100 100 93 13 14 97 99 96 100 40 76 26 55 66 12 16 49 76 9 65 54 5 5 15 20 21 31 100 100 3 3 90 66 12 49
100 100 100 100 100 100 100 100 100 100 100 24 7 57 100 96 82 12 27 33 5 33 59 5 8 77 79 86 99 5 5 5 5 57 8 29 100 80 6 19 97 100 100 88
100 100 100 100 100 100 100 100 100 100 73 42 45 88 100 94 46 84 36 5 23 15 25 91 68 62 31 63 34 16 84 64 20 89 7 96 88 5 6 68 66 98 97 100
100 100 100 100 100 100 100 100 100 100 76 60 55 88 100 99 58 46 70 58 62 51 80 24 14 47 28 68 55 25 31 94 100 62 46 89 6 5 14 82 100 100 100 54
100 100 100 100 100 100 100 100 100 100 100 67 96 99 100 100 62 97 99 82 9 11 33 86 72 93 87 58 82 42 5 15 6 45 6 5 58 100 100 100 73 89 100 100
100 100 100 100 100 100 100 85 90 91 47 52 94 100 100 100 97 79 94 99 12 49 66 45 44 54 98 100 100 100 65 75 94 26 99 97 100 100 100 100 100 100 100 100
100 100 100 100 100 89 100 100 98 78 70 100 100 98 100 100 100 100 100 100 19 23 5 82 72 56 100 100 44 100 100 100 18 47 100 100 100 100 100 100 100 100 100 100
100 100 100 100 100 100 100 100 100 100 87 92 100 100 74 100 100 100 100 100 99 91 85 100 100 100 100 100 100 100 100 100 100 100 100 98 74 95 100 100 100 100 100 100
100 100 100 100 100 100 100 100 100 100 100 100 100 100 100 100 100 100 100 100 100 100 100 100 100 100 100 100 100 100 100 98 69 30 6 5 66 75 100 88 63 84 87 100
100 100 100 100 100 100 100 100 100 100 100 100 100 100 100 100 100 100 100 100 100 100 100 100 100 100 100 100 100 100 100 97 63 5 7 52 72 67 83 97 100 97 100 100
100 100 100 100 100 100 100 100 100 100 100 100 100 100 100 100 100 100 100 100 100 100 100 100 100 100 100 100 100 100 87 93 55 22 51 85 100 100 100 100 100 100 100 100
100 100 100 100 100 100 100 100 100 100 100 100 100 100 100 100 100 100 100 100 100 100 100 100 85 100 100 100 100 100 99 100 100 100 100 100 100 100 100 100 100 100 100 100
100 100 100 100 100 100 100 100 100 100 100 100 100 100 100 100 100 100 100 99 93 51 85 99 100 100 100 100 100 100 100 100 100 100 100 100 100 100 100 100 100 100 100 100
100 100 100 100 99 96 100 98 100 100 100 100 100 100 100 100 100 100 69 94 68 90 15 100 94 100 100 100 100 100 100 100 100 100 100 100 100 100 100 100 100 100 100 100
100 100 100 97 96 88 86 86 94 69 99 100 100 100 100 100 100 100 100 100 91 96 95 100 100 100 100 100 100 100 100 100 100 100 100 100 100 100 100 100 100 100 100 100
100 100 100 100 99 100 100 100 100 100 100 100 100 100 100 100 100 100 100 100 100 96 100 100 99 100 100 100 100 100 100 100 100 100 100 100 100 100 100 100 100 100 100 100
100 100 100 97 100 100 100 100 100 100 100 100 100 100 100 100 100 100 100 100 100 100 97 100 100 100 100 100 100 100 100 100 100 100 100 100 100 100 100 100 100 100 100 100
100 96 91 99 100 100 100 100 100 100 100 100 100 100 100 100 100 100 100 100 96 94 94 100 100 100 100 100 100 100 100 100 100 100 97 100 100 100 100 100 100 100 100 100
100 95 99 100 100 100 100 100 100 100 100 100 100 100 100 100 100 100 100 100 100 97 100 86 100 100 100 100 100 100 96 88 92 99 100 99 100 100 100 100 100 100 100 100
100 100 100 100 100 100 100 100 100 100 100 100 100 100 100 100 100 100 100 99 97 100 100 100 100 100 100 100 100 100 100 100 100 100 100 100 100 100 100 100 100 100 64 9